TimeEST,TemperatureF,Dew PointF,Humidity,Sea Level PressureIn,VisibilityMPH,Wind Direction,Wind SpeedMPH,Gust SpeedMPH,PrecipitationIn,Events,Conditions,WindDirDegrees,DateUTC
12:51 AM,27.0,24.1,89,29.97,7.0,Calm,Calm,-,N/A,,Clear,0,2012-11-07 05:51:00
1:51 AM,27.0,24.1,89,29.95,6.0,Calm,Calm,-,N/A,,Clear,0,2012-11-07 06:51:00
2:51 AM,26.1,24.1,92,29.95,6.0,Calm,Calm,-,N/A,,Clear,0,2012-11-07 07:51:00
3:51 AM,27.0,25.0,92,29.94,6.0,Calm,Calm,-,N/A,,Clear,0,2012-11-07 08:51:00
4:51 AM,27.0,25.0,92,29.95,5.0,Calm,Calm,-,N/A,,Clear,0,2012-11-07 09:51:00
5:51 AM,26.6,24.8,93,29.88,4.0,Calm,Calm,-,N/A,,Clear,0,2012-11-07 10:51:00
6:51 AM,28.0,26.1,92,29.95,5.0,Calm,Calm,-,N/A,,Clear,0,2012-11-07 11:51:00
7:51 AM,28.9,26.1,89,29.97,4.0,Calm,Calm,-,N/A,,Scattered Clouds,0,2012-11-07 12:51:00
9:51 AM,33.1,28.9,85,29.97,6.0,Calm,Calm,-,N/A,,Clear,0,2012-11-07 14:51:00
10:51 AM,35.1,28.0,76,29.96,8.0,Calm,Calm,-,N/A,,Scattered Clouds,0,2012-11-07 15:51:00
11:51 AM,37.0,28.0,70,29.95,8.0,Calm,Calm,-,N/A,,Mostly Cloudy,0,2012-11-07 16:51:00
12:51 PM,37.9,28.0,68,29.94,9.0,Calm,Calm,-,N/A,,Partly Cloudy,0,2012-11-07 17:51:00
1:51 PM,39.0,28.0,65,29.94,10.0,Calm,Calm,-,N/A,,Mostly Cloudy,0,2012-11-07 18:51:00
2:51 PM,41.0,28.9,62,29.95,10.0,North,4.6,-,N/A,,Partly Cloudy,10,2012-11-07 19:51:00
3:51 PM,39.9,28.0,63,29.96,10.0,Variable,3.5,-,N/A,,Mostly Cloudy,0,2012-11-07 20:51:00
4:51 PM,39.0,28.0,65,29.98,10.0,North,5.8,-,N/A,,Partly Cloudy,10,2012-11-07 21:51:00
5:51 PM,37.4,26.6,65,29.94,10.0,North,3.5,-,N/A,,Partly Cloudy,360,2012-11-07 22:51:00
6:51 PM,34.0,27.0,75,30.04,10.0,Calm,Calm,-,N/A,,Scattered Clouds,0,2012-11-07 23:51:00
7:51 PM,33.1,27.0,78,30.04,10.0,Calm,Calm,-,N/A,,Scattered Clouds,0,2012-11-08 00:51:00
8:51 PM,32.0,27.0,82,30.05,9.0,Calm,Calm,-,N/A,,Partly Cloudy,0,2012-11-08 01:51:00
9:51 PM,30.9,27.0,85,30.06,8.0,Calm,Calm,-,N/A,,Clear,0,2012-11-08 02:51:00
10:51 PM,30.0,26.1,85,30.06,7.0,Calm,Calm,-,N/A,,Clear,0,2012-11-08 03:51:00
11:51 PM,28.0,26.1,92,30.06,7.0,Calm,Calm,-,N/A,,Clear,0,2012-11-08 04:51:00